Content
SEND FEEDBACK

Daily
Averages
Monthly
Summary
United States of America

SPRING GROVE, MINNESOTA


Home > North America > United States > Minnesota
Elevation: 402 meters     Latitude: 43 34N     Longitude: 091 40W

WEATHER
 
SELECT A DAY
Number of Records: 404,608;   Date Range: 4/29/95 - 11/26/14
 
SHARE

PRINT THIS DATA

[ ← Previous Day ]
WEATHER ALMANAC - 31 JANUARY, 2013
[ Next Day → ]
[ °F ]   °C
Weather ElementAverageHighLow
Temperature-16.2 °C-11 °C (12:35 am)-21 °C (11:35 pm)
Dewpoint-20.8 °C-14 °C (12:35 am)-25 °C (10:15 pm)
Humidity68.7 %79 % (12:35 am)61 % (10:55 am)
Barometer1013.5 hPa1023 hPa (11:55 pm)1005.4 hPa (12:35 am)
Wind Speed20.1 km/h27.8 km/h (9:55 am)
Wind Gust46.3 km/h (2:15 pm)
Weather ElementAverage
Visibility13.4 km
Wind DirectionWNW (297.2 °)

Weather ElementTotal
Precipitation---
Heating Degree Days34.3 (Base 18.3)
Averaged from 68 records on 31 January, 2013
WEATHER CONDITIONS BREAKOUT
WIND DIRECTION BREAKOUT
WEATHER BY HOUR - 31 JANUARY, 2013
[ °F ]   °C
Local TimeTemperatureDewpointHumidityBarometerVisibilityWind DirectionWind SpeedGust SpeedPrecipitationEventsConditions
12:35 AM-11 °C-14 °C79 %1005.4 hPa16.1 kmWNW (300°)14.8 km/h25.9 km/hRainLight Rain
12:55 AM-11 °C-15 °C73 %1005.8 hPa16.1 kmWest (280°)18.5 km/h38.9 km/hOvercast
1:15 AM-11 °C-15 °C73 %1006.1 hPa16.1 kmWNW (300°)16.7 km/h35.2 km/hOvercast
1:35 AM-12 °C-15 °C79 %1006.1 hPa16.1 kmWNW (290°)20.4 km/h35.2 km/hOvercast
1:55 AM-12 °C-16 °C73 %1006.4 hPa16.1 kmWNW (290°)22.2 km/hOvercast
2:15 AM-12 °C-16 °C73 %1006.8 hPa16.1 kmWNW (290°)18.5 km/h31.5 km/hOvercast
2:35 AM-12 °C-16 °C73 %1007.1 hPa16.1 kmWest (280°)16.7 km/h27.8 km/hOvercast
2:55 AM-13 °C-16 °C79 %1007.1 hPa14.5 kmWNW (300°)20.4 km/h31.5 km/hOvercast
3:15 AM-13 °C-17 °C73 %1007.1 hPa16.1 kmWest (280°)18.5 km/h33.3 km/hOvercast
3:35 AM-14 °C-18 °C72 %1007.1 hPa16.1 kmWNW (290°)14.8 km/h31.5 km/hOvercast
3:55 AM-14 °C-17 °C79 %1007.1 hPa14.5 kmWNW (300°)16.7 km/h35.2 km/hLight Drizzle
4:15 AM-14 °C-18 °C72 %1007.1 hPa16.1 kmWNW (300°)16.7 km/h35.2 km/hOvercast
4:35 AM-14 °C-18 °C72 %1007.5 hPa16.1 kmWNW (300°)18.5 km/hOvercast
4:55 AM-14 °C-18 °C72 %1007.8 hPa16.1 kmWNW (290°)14.8 km/h25.9 km/hOvercast
5:15 AM-14 °C-18 °C72 %1007.8 hPa16.1 kmWNW (300°)14.8 km/h29.6 km/hOvercast
5:35 AM-15 °C-18 °C78 %1008.5 hPa11.3 kmWNW (290°)24.1 km/hSnowLight Snow
5:55 AM-15 °C-19 °C72 %1008.8 hPa12.9 kmWNW (290°)20.4 km/h33.3 km/hSnowLight Snow
6:15 AM-15 °C-19 °C72 %1008.8 hPa12.9 kmWNW (290°)22.2 km/h42.6 km/hRainLight Rain
6:35 AM-15 °C-19 °C72 %1009.1 hPa14.5 kmWNW (290°)16.7 km/h29.6 km/hSnowLight Snow
6:55 AM-15 °C-20 °C66 %1009.1 hPa16.1 kmWNW (300°)18.5 km/h35.2 km/hOvercast
7:15 AM-16 °C-20 °C72 %1009.8 hPa12.9 kmWNW (300°)20.4 km/h33.3 km/hOvercast
7:35 AM-16 °C-21 °C66 %1010.2 hPa16.1 kmWNW (300°)14.8 km/h31.5 km/hOvercast
7:55 AM-16 °C-21 °C66 %1010.2 hPa16.1 kmWNW (300°)16.7 km/h27.8 km/hOvercast
8:15 AM-16 °C-21 °C66 %1010.5 hPa14.5 kmWNW (300°)22.2 km/h31.5 km/hOvercast
8:35 AM-16 °C-21 °C66 %1010.8 hPa14.5 kmWNW (300°)20.4 km/h37 km/hOvercast
8:55 AM-16 °C-20 °C72 %1011.2 hPa6.4 kmWNW (290°)22.2 km/h33.3 km/hHaze
9:15 AM-16 °C-21 °C66 %1011.5 hPa9.7 kmNW (310°)24.1 km/h37 km/hHaze
9:35 AM-16 °C-21 °C66 %1011.5 hPa12.9 kmWNW (290°)18.5 km/h38.9 km/hOvercast
9:55 AM-16 °C-21 °C66 %1012.2 hPa6.4 kmNW (310°)27.8 km/h38.9 km/hHaze
10:15 AM-17 °C-21 °C72 %1012.5 hPa9.7 kmWNW (300°)14.8 km/h35.2 km/hHaze
10:35 AM-16 °C-21 °C66 %1012.9 hPa11.3 kmNW (310°)24.1 km/h40.7 km/hMostly Cloudy
10:55 AM-16 °C-22 °C61 %1013.2 hPa9.7 kmWNW (300°)24.1 km/h35.2 km/hHaze
11:15 AM-16 °C-21 °C66 %1013.5 hPa8 kmWNW (300°)25.9 km/h37 km/hHaze
11:35 AM-16 °C-21 °C66 %1013.5 hPa9.7 kmNW (310°)22.2 km/h35.2 km/hHaze
11:55 AM-16 °C-21 °C66 %1013.5 hPa11.3 kmWNW (290°)22.2 km/hOvercast
12:15 PM-16 °C-21 °C66 %1013.9 hPa8 kmWNW (290°)20.4 km/h37 km/hHaze
12:35 PM-16 °C-21 °C66 %1014.2 hPa4.8 kmWNW (290°)25.9 km/h38.9 km/hHaze
12:55 PM-16 °C-21 °C66 %1013.9 hPa12.9 kmWNW (290°)27.8 km/h37 km/hMostly Cloudy
1:15 PM-16 °C-22 °C61 %1014.2 hPa14.5 kmWNW (300°)24.1 km/h40.7 km/hOvercast
1:35 PM-16 °C-22 °C61 %1014.6 hPa14.5 kmWNW (290°)25.9 km/h44.4 km/hOvercast
1:55 PM-16 °C-21 °C66 %1014.6 hPa11.3 kmWNW (300°)20.4 km/h37 km/hMostly Cloudy
2:15 PM-16 °C-21 °C66 %1014.9 hPa8 kmWNW (290°)16.7 km/h46.3 km/hHaze
2:35 PM-16 °C-22 °C61 %1015.2 hPa14.5 kmNW (310°)27.8 km/h38.9 km/hMostly Cloudy
2:55 PM-16 °C-22 °C61 %1015.6 hPa14.5 kmWNW (300°)27.8 km/h40.7 km/hOvercast
3:15 PM-17 °C-22 °C66 %1015.9 hPa9.7 kmWNW (300°)27.8 km/h42.6 km/hHaze
3:35 PM-17 °C-21 °C72 %1016.3 hPa6.4 kmNW (310°)27.8 km/h42.6 km/hSnowLight Snow
3:55 PM-17 °C-22 °C66 %1016.6 hPa8 kmWNW (300°)27.8 km/h46.3 km/hHaze
4:15 PM-17 °C-22 °C66 %1016.9 hPa6.4 kmWNW (300°)24.1 km/h42.6 km/hSnowLight Snow
4:35 PM-17 °C-21 °C72 %1016.9 hPa3.2 kmWNW (300°)25.9 km/h42.6 km/hSnowLight Snow
4:55 PM-17 °C-22 °C66 %1017.6 hPa11.3 kmWNW (300°)25.9 km/h40.7 km/hMostly Cloudy
5:15 PM-18 °C-23 °C66 %1017.9 hPa12.9 kmWNW (300°)18.5 km/h46.3 km/hOvercast
5:35 PM-18 °C-23 °C66 %1018.3 hPa14.5 kmWNW (300°)18.5 km/h35.2 km/hOvercast
6:15 PM-18 °C-23 °C66 %1019 hPa16.1 kmWNW (290°)24.1 km/h38.9 km/hOvercast
6:35 PM-18 °C-23 °C66 %1019 hPa16.1 kmWNW (300°)16.7 km/h33.3 km/hOvercast
7:15 PM-19 °C-23 °C71 %1019.6 hPa16.1 kmWNW (300°)20.4 km/h46.3 km/hOvercast
7:35 PM-19 °C-24 °C66 %1020 hPa16.1 kmWNW (290°)20.4 km/h35.2 km/hOvercast
7:55 PM-19 °C-24 °C66 %1020.3 hPaWNW (300°)18.5 km/h35.2 km/hOvercast
8:15 PM-19 °C-24 °C66 %1020.7 hPa16.1 kmWNW (300°)18.5 km/h37 km/hOvercast
8:35 PM-19 °C-24 °C66 %1020.7 hPa16.1 kmWNW (300°)16.7 km/h29.6 km/hOvercast
9:15 PM-20 °C-24 °C71 %1021.3 hPa16.1 kmWNW (300°)18.5 km/h27.8 km/hOvercast
9:35 PM-20 °C-24 °C71 %1021.3 hPa16.1 kmWNW (300°)14.8 km/h29.6 km/hOvercast
9:55 PM-20 °C-24 °C71 %1021.7 hPa16.1 kmWNW (300°)16.7 km/hOvercast
10:15 PM-20 °C-25 °C65 %1022 hPa16.1 kmWNW (300°)13 km/h29.6 km/hOvercast
10:35 PM-20 °C-25 °C65 %1022 hPa16.1 kmWNW (300°)16.7 km/h33.3 km/hOvercast
10:55 PM-20 °C-25 °C65 %1022.4 hPa16.1 kmWNW (300°)18.5 km/h38.9 km/hOvercast
11:15 PM-20 °C-25 °C65 %1022.4 hPa16.1 kmWNW (300°)13 km/h33.3 km/hOvercast
11:35 PM-21 °C-25 °C71 %1022.7 hPa16.1 kmWNW (300°)13 km/h24.1 km/hOvercast
11:55 PM-21 °C-25 °C71 %1023 hPa16.1 kmWNW (300°)13 km/h31.5 km/hOvercast
Hourly data recorded from KDEH, located 0 kilometers away from Spring Grove, Minnesota







STORIES FROM OUR PARTNERS